Tracking 30922 objects as of 2-Jul-2025
HD Live streaming from Space Station
objects crossing your sky now

ONEWEB-0231

Track ONEWEB-0231 now!
10-day predictions
ONEWEB-0231 is classified as:


NORAD ID: 48782
Int'l Code: 2021-045R
Perigee: 1,207.3 km
Apogee: 1,210.5 km
Inclination: 87.9 °
Period: 109.5 minutes
Semi major axis: 7579 km
RCS: Unknown
Launch date: May 28, 2021
Source: United Kingdom (UK)
Launch site: VOSTOCHNY COSMODROME (VOSTO)
Your satellite tracking list
STARLINK-3112
Track 1 satellite(s)




NASA's NSSDC Master Catalog

Two Line Element Set (TLE):
1 48782U 21045R   25182.87955138 -.00000067  00000-0 -21095-3 0  9990
2 48782  87.9050 329.0556 0002128 102.1959 257.9410 13.15547667199428
Source of the keplerian elements: AFSPC